TimeMST,TemperatureF,Dew PointF,Humidity,Sea Level PressureIn,VisibilityMPH,Wind Direction,Wind SpeedMPH,Gust SpeedMPH,PrecipitationIn,Events,Conditions,WindDirDegrees,DateUTC
12:53 AM,23.0,18.0,81,30.43,10.0,NNW,3.5,-,N/A,,Clear,340,2013-11-25 07:53:00
1:53 AM,23.0,18.0,81,30.43,10.0,Calm,Calm,-,N/A,,Clear,0,2013-11-25 08:53:00
2:53 AM,21.0,17.1,85,30.44,10.0,Calm,Calm,-,N/A,,Clear,0,2013-11-25 09:53:00
3:53 AM,21.9,17.1,82,30.46,10.0,Calm,Calm,-,N/A,,Clear,0,2013-11-25 10:53:00
4:53 AM,19.9,16.0,85,30.47,10.0,Calm,Calm,-,N/A,,Clear,0,2013-11-25 11:53:00
5:53 AM,19.9,16.0,85,30.48,10.0,Calm,Calm,-,N/A,,Clear,0,2013-11-25 12:53:00
6:53 AM,19.9,15.1,81,30.50,9.0,Calm,Calm,-,N/A,,Clear,0,2013-11-25 13:53:00
7:53 AM,17.1,14.0,88,30.53,10.0,Calm,Calm,-,N/A,,Clear,0,2013-11-25 14:53:00
8:53 AM,19.9,15.1,81,30.54,10.0,Calm,Calm,-,N/A,,Clear,0,2013-11-25 15:53:00
9:53 AM,24.1,19.9,84,30.55,8.0,Calm,Calm,-,N/A,,Clear,0,2013-11-25 16:53:00
10:53 AM,27.0,21.0,78,30.55,9.0,Calm,Calm,-,N/A,,Clear,0,2013-11-25 17:53:00
11:53 AM,32.0,21.9,66,30.53,10.0,Calm,Calm,-,N/A,,Clear,0,2013-11-25 18:53:00
12:53 PM,36.0,21.0,55,30.51,10.0,Calm,Calm,-,N/A,,Clear,0,2013-11-25 19:53:00
1:53 PM,39.9,21.9,49,30.48,10.0,Calm,Calm,-,N/A,,Clear,0,2013-11-25 20:53:00
2:53 PM,37.0,21.9,54,30.49,10.0,Calm,Calm,-,N/A,,Clear,0,2013-11-25 21:53:00
3:53 PM,37.0,21.9,54,30.49,10.0,Calm,Calm,-,N/A,,Clear,0,2013-11-25 22:53:00
4:53 PM,35.1,21.0,57,30.50,10.0,WSW,3.5,-,N/A,,Clear,240,2013-11-25 23:53:00
5:53 PM,30.0,21.0,69,30.52,10.0,Calm,Calm,-,N/A,,Scattered Clouds,0,2013-11-26 00:53:00
6:53 PM,28.9,21.9,75,30.53,10.0,Calm,Calm,-,N/A,,Mostly Cloudy,0,2013-11-26 01:53:00
7:53 PM,28.0,21.0,75,30.54,10.0,Calm,Calm,-,N/A,,Partly Cloudy,0,2013-11-26 02:53:00
8:53 PM,27.0,19.9,75,30.54,10.0,Calm,Calm,-,N/A,,Partly Cloudy,0,2013-11-26 03:53:00
9:53 PM,27.0,21.0,78,30.53,10.0,Calm,Calm,-,N/A,,Clear,0,2013-11-26 04:53:00
10:53 PM,25.0,19.9,81,30.53,10.0,Calm,Calm,-,N/A,,Clear,0,2013-11-26 05:53:00
11:53 PM,24.1,19.0,81,30.53,10.0,Calm,Calm,-,N/A,,Clear,0,2013-11-26 06:53:00